Tracking 19559 objects as of 26-Mar-2019
HD Live streaming from Space Station
objects crossing your sky now

INTELSAT 505

Track INTELSAT 505 now!
INTELSAT 505 is classified as:


NORAD ID: 13595
Int'l Code: 1982-097A
Perigee: 36,206.6 km
Apogee: 36,442.2 km
Inclination: 15.1 °
Period: 1,463.3 minutes
Semi major axis: 42695 km
RCS: 0.1428 m2 (medium)
Launch date: September 28, 1982
Source: International Telecommunications Satellite Organization (ITSO)
Launch site: AIR FORCE EASTERN TEST RANGE (AFETR)
aabbcc
Your satellite tracking list
Your tracking list is empty




NASA's NSSDC Master Catalog

Two Line Element Set (TLE):
1 13595U 82097A   19084.74339376 -.00000205 +00000-0 +00000-0 0  9991
2 13595 015.0612 352.0705 0027589 344.6088 296.2444 00.98408286102049
Source of the keplerian elements: AFSPC